Retour au catalogue

KANOPUS-V 6

ActifScienceSSO
NORAD 43877·PAYLOAD·🇷🇺 Russia

Lancé Dec 27, 2018 depuis Vostochny Cosmodrome

Loading…

Prochains Passages (prochaines 24 heures)

TLE

FraisSource: Space-Track

Époque: Sep 14, 2026, 14:51 UTC

1 43877U 18111B   26257.61940419  .00000028  00000-0  27482-5 0  9995
2 43877  97.3651 175.4214 0001867  90.0591 270.0869 15.40301404429292

Suivez KANOPUS-V 6 en temps réel avec AllMySat

Download on the App Store